FDX4218 PHTO-PHNL

Flight info

Callsign FDX4218
Flight time N/A
Altitude 22000
Route ITO V22 OKALA V16 LNY JULLE5
Aircraft DH8D/M-VGDW/C

Departure

Time 2026-04-15 14:00
Airport Hilo International Airport (PHTO)

Arrival

Time N/A
Airport Daniel K. Inouye International Airport (PHNL)
Time Latitude Longitude Altitude Speed Heading
2026-04-15 13:57 19.71882 -155.05352 48 ft 0 kts 182°
2026-04-15 13:58 19.71891 -155.05352 48 ft 2 kts 186°
2026-04-15 13:58 19.71908 -155.05347 48 ft 3 kts 201°
2026-04-15 13:58 19.71926 -155.05337 48 ft 3 kts 218°
2026-04-15 13:59 19.71925 -155.05386 48 ft 13 kts 357°
2026-04-15 13:59 19.72110 -155.05327 48 ft 24 kts 55°
2026-04-15 13:59 19.72135 -155.05180 48 ft 27 kts 91°
2026-04-15 13:59 19.72134 -155.04339 49 ft 191 kts 90°
2026-04-15 14:00 19.72123 -155.02639 699 ft 243 kts 89°
2026-04-15 14:00 19.72511 -155.00901 1242 ft 239 kts 67°
2026-04-15 14:00 19.73534 -154.99583 1908 ft 242 kts 40°
2026-04-15 14:00 19.75062 -154.98838 2655 ft 248 kts 13°
2026-04-15 14:01 19.78367 -154.99730 4158 ft 257 kts 322°
2026-04-15 14:01 19.79509 -155.01193 4929 ft 260 kts 303°
2026-04-15 14:01 19.80381 -155.02861 5675 ft 262 kts 297°
2026-04-15 14:02 19.81186 -155.04606 6427 ft 264 kts 296°
2026-04-15 14:02 19.81997 -155.06361 7178 ft 266 kts 297°
2026-04-15 14:02 19.82916 -155.08077 7929 ft 269 kts 302°
2026-04-15 14:02 19.83988 -155.09717 8682 ft 272 kts 307°
2026-04-15 14:03 19.85204 -155.11275 9441 ft 284 kts 311°
2026-04-15 14:03 19.86638 -155.12874 10223 ft 314 kts 315°
2026-04-15 14:03 19.88294 -155.14536 10994 ft 339 kts 317°
2026-04-15 14:03 19.90109 -155.16228 11756 ft 356 kts 318°
2026-04-15 14:04 19.92049 -155.17947 12517 ft 370 kts 319°
2026-04-15 14:04 19.94083 -155.19694 13277 ft 381 kts 319°
2026-04-15 14:04 19.96160 -155.21447 14025 ft 390 kts 320°
2026-04-15 14:04 19.98309 -155.23240 14779 ft 395 kts 320°
2026-04-15 14:05 20.00361 -155.25171 15525 ft 394 kts 311°
2026-04-15 14:05 20.02028 -155.27455 16282 ft 389 kts 301°
2026-04-15 14:05 20.03357 -155.29947 17036 ft 385 kts 294°
2026-04-15 14:05 20.04428 -155.32546 17787 ft 382 kts 289°
2026-04-15 14:06 20.05321 -155.35200 18539 ft 380 kts 286°
2026-04-15 14:06 20.06087 -155.37838 19278 ft 378 kts 284°
2026-04-15 14:06 20.06800 -155.40521 20028 ft 375 kts 283°
2026-04-15 14:06 20.07514 -155.43183 20777 ft 372 kts 283°
2026-04-15 14:07 20.08257 -155.45795 21523 ft 367 kts 284°
2026-04-15 14:07 20.08514 -155.46674 21776 ft 366 kts 284°
2026-04-15 14:07 20.09403 -155.49665 22201 ft 372 kts 284°
2026-04-15 14:07 20.10205 -155.52327 22209 ft 381 kts 285°
2026-04-15 14:08 20.11016 -155.54988 22218 ft 386 kts 285°
2026-04-15 14:08 20.11850 -155.57702 22216 ft 389 kts 285°
2026-04-15 14:08 20.12697 -155.60446 22207 ft 390 kts 285°
2026-04-15 14:08 20.13547 -155.63192 22198 ft 391 kts 285°
2026-04-15 14:09 20.14398 -155.65940 22188 ft 392 kts 285°
2026-04-15 14:09 20.15253 -155.68704 22178 ft 392 kts 285°
2026-04-15 14:09 20.15815 -155.70523 22172 ft 392 kts 285°
2026-04-15 14:09 20.16535 -155.72855 22163 ft 392 kts 285°
2026-04-15 14:10 20.17375 -155.75580 22153 ft 392 kts 285°
2026-04-15 14:10 20.18223 -155.78335 22142 ft 392 kts 285°
2026-04-15 14:10 20.19095 -155.81081 22132 ft 392 kts 287°
2026-04-15 14:10 20.20120 -155.83779 22124 ft 394 kts 290°
2026-04-15 14:11 20.21258 -155.86428 22115 ft 394 kts 292°
2026-04-15 14:11 20.22471 -155.89050 22106 ft 395 kts 293°
2026-04-15 14:11 20.23727 -155.91648 22098 ft 395 kts 294°
2026-04-15 14:11 20.24996 -155.94206 22090 ft 395 kts 294°
2026-04-15 14:12 20.26308 -155.96813 22083 ft 395 kts 294°
2026-04-15 14:12 20.27598 -155.99357 22077 ft 395 kts 295°
2026-04-15 14:12 20.28908 -156.01934 22071 ft 397 kts 295°
2026-04-15 14:12 20.30224 -156.04524 22066 ft 399 kts 295°
2026-04-15 14:13 20.31545 -156.07123 22055 ft 400 kts 295°
2026-04-15 14:13 20.32869 -156.09733 22011 ft 401 kts 295°
2026-04-15 14:13 20.34198 -156.12356 21977 ft 402 kts 295°
2026-04-15 14:13 20.35521 -156.14971 21966 ft 401 kts 295°
2026-04-15 14:14 20.36827 -156.17556 21963 ft 401 kts 295°
2026-04-15 14:14 20.38146 -156.20169 21963 ft 401 kts 295°
2026-04-15 14:14 20.39465 -156.22787 21963 ft 401 kts 295°
2026-04-15 14:14 20.40781 -156.25403 21963 ft 400 kts 295°
2026-04-15 14:15 20.42094 -156.28016 21964 ft 400 kts 295°
2026-04-15 14:15 20.43410 -156.30636 21964 ft 400 kts 294°
2026-04-15 14:15 20.44723 -156.33253 21964 ft 400 kts 294°
2026-04-15 14:15 20.46033 -156.35867 21965 ft 400 kts 294°
2026-04-15 14:16 20.47344 -156.38487 21965 ft 400 kts 294°
2026-04-15 14:16 20.47951 -156.39700 21965 ft 400 kts 294°
2026-04-15 14:16 20.49242 -156.42276 21965 ft 400 kts 294°
2026-04-15 14:16 20.50555 -156.44896 21968 ft 400 kts 294°
2026-04-15 14:17 20.51862 -156.47504 21979 ft 399 kts 294°
2026-04-15 14:17 20.53170 -156.50115 21985 ft 399 kts 294°
2026-04-15 14:17 20.54478 -156.52730 21987 ft 399 kts 294°
2026-04-15 14:17 20.55780 -156.55333 21989 ft 399 kts 294°
2026-04-15 14:18 20.57087 -156.57950 21991 ft 399 kts 294°
2026-04-15 14:18 20.58388 -156.60553 21993 ft 398 kts 294°
2026-04-15 14:18 20.59672 -156.63127 21995 ft 398 kts 294°
2026-04-15 14:18 20.60972 -156.65733 21998 ft 398 kts 294°
2026-04-15 14:19 20.62273 -156.68345 22001 ft 398 kts 294°
2026-04-15 14:19 20.62905 -156.69613 22002 ft 398 kts 294°
2026-04-15 14:19 20.64203 -156.72221 22006 ft 397 kts 294°
2026-04-15 14:19 20.65499 -156.74825 22009 ft 397 kts 294°
2026-04-15 14:20 20.66789 -156.77421 22013 ft 397 kts 294°
2026-04-15 14:20 20.68085 -156.80028 22016 ft 397 kts 294°
2026-04-15 14:20 20.69364 -156.82600 22019 ft 397 kts 294°
2026-04-15 14:20 20.70673 -156.85233 22022 ft 397 kts 294°
2026-04-15 14:21 20.71948 -156.87797 22024 ft 397 kts 294°
2026-04-15 14:21 20.73245 -156.90408 22026 ft 397 kts 294°
2026-04-15 14:21 20.74531 -156.93007 22027 ft 396 kts 293°
2026-04-15 14:21 20.75734 -156.95649 22027 ft 395 kts 291°
2026-04-15 14:22 20.76828 -156.98338 22027 ft 394 kts 289°
2026-04-15 14:22 20.77834 -157.01051 22027 ft 393 kts 287°
2026-04-15 14:22 20.78782 -157.03797 22025 ft 392 kts 286°
2026-04-15 14:22 20.79681 -157.06541 22022 ft 392 kts 285°
2026-04-15 14:23 20.80259 -157.08365 22020 ft 391 kts 285°
2026-04-15 14:23 20.81397 -157.12021 22017 ft 391 kts 285°
2026-04-15 14:23 20.82256 -157.14775 22014 ft 391 kts 285°
2026-04-15 14:23 20.83124 -157.17527 22010 ft 391 kts 285°
2026-04-15 14:24 20.84003 -157.20282 22007 ft 391 kts 285°
2026-04-15 14:24 20.84886 -157.23030 22004 ft 391 kts 285°
2026-04-15 14:24 20.85774 -157.25782 22001 ft 391 kts 285°
2026-04-15 14:24 20.86361 -157.27599 21785 ft 385 kts 285°
2026-04-15 14:25 20.87443 -157.30896 20916 ft 326 kts 285°
2026-04-15 14:25 20.87928 -157.32352 20563 ft 292 kts 285°
2026-04-15 14:25 20.88763 -157.34882 19881 ft 261 kts 284°
2026-04-15 14:25 20.89339 -157.36681 19373 ft 250 kts 284°
2026-04-15 14:26 20.89702 -157.37828 19038 ft 242 kts 283°
2026-04-15 14:26 20.90242 -157.39539 18519 ft 232 kts 283°
2026-04-15 14:26 20.90741 -157.41123 18019 ft 224 kts 283°
2026-04-15 14:26 20.91253 -157.42780 17530 ft 247 kts 283°
2026-04-15 14:27 20.91813 -157.44593 17040 ft 264 kts 284°
2026-04-15 14:27 20.92409 -157.46486 16546 ft 273 kts 284°
2026-04-15 14:27 20.93032 -157.48437 16048 ft 279 kts 284°
2026-04-15 14:27 20.93663 -157.50401 15553 ft 282 kts 285°
2026-04-15 14:28 20.94305 -157.52392 15053 ft 284 kts 285°
2026-04-15 14:28 20.94960 -157.54423 14545 ft 284 kts 285°
2026-04-15 14:28 20.95597 -157.56400 14051 ft 285 kts 285°
2026-04-15 14:28 20.96239 -157.58401 13551 ft 285 kts 285°
2026-04-15 14:29 20.96881 -157.60402 13051 ft 284 kts 285°
2026-04-15 14:29 20.97519 -157.62394 12547 ft 282 kts 284°
2026-04-15 14:29 20.98104 -157.64399 12042 ft 282 kts 284°
2026-04-15 14:29 20.98726 -157.66374 11523 ft 280 kts 285°
2026-04-15 14:30 20.99379 -157.68364 11065 ft 284 kts 287°
2026-04-15 14:30 21.00053 -157.70337 10541 ft 282 kts 287°
2026-04-15 14:30 21.00687 -157.72303 10073 ft 277 kts 286°
2026-04-15 14:30 21.01304 -157.74274 9572 ft 279 kts 287°
2026-04-15 14:31 21.01943 -157.76238 9070 ft 280 kts 288°
2026-04-15 14:31 21.02570 -157.78209 8569 ft 279 kts 287°
2026-04-15 14:31 21.03193 -157.80150 8070 ft 279 kts 288°
2026-04-15 14:31 21.03819 -157.82105 7571 ft 277 kts 288°
2026-04-15 14:32 21.04434 -157.84057 7068 ft 276 kts 288°
2026-04-15 14:32 21.05041 -157.85997 6568 ft 274 kts 288°
2026-04-15 14:32 21.05636 -157.87919 6069 ft 272 kts 287°
2026-04-15 14:32 21.06222 -157.89835 5576 ft 270 kts 288°
2026-04-15 14:33 21.06814 -157.91730 5072 ft 268 kts 288°
2026-04-15 14:33 21.07481 -157.93592 4541 ft 266 kts 295°
2026-04-15 14:33 21.08485 -157.95211 4079 ft 265 kts 308°
2026-04-15 14:33 21.08841 -157.95670 3920 ft 265 kts 310°
2026-04-15 14:34 21.10107 -157.97099 3430 ft 263 kts 315°
2026-04-15 14:34 21.11433 -157.98421 3074 ft 256 kts 318°
2026-04-15 14:34 21.12755 -157.99680 3013 ft 254 kts 319°
2026-04-15 14:34 21.14058 -158.00952 2995 ft 254 kts 318°
2026-04-15 14:35 21.15401 -158.02182 2991 ft 254 kts 321°
2026-04-15 14:35 21.16320 -158.02973 2998 ft 253 kts 322°
2026-04-15 14:35 21.17196 -158.03705 2988 ft 253 kts 323°
2026-04-15 14:35 21.18608 -158.04837 2989 ft 253 kts 324°
2026-04-15 14:36 21.20038 -158.05894 2964 ft 254 kts 329°
2026-04-15 14:36 21.21544 -158.06862 2988 ft 253 kts 333°
2026-04-15 14:36 21.23242 -158.07266 2982 ft 248 kts 358°
2026-04-15 14:36 21.24926 -158.06898 3009 ft 257 kts 21°
2026-04-15 14:37 21.26381 -158.05832 3014 ft 254 kts 44°
2026-04-15 14:37 21.27297 -158.04340 3023 ft 242 kts 63°
2026-04-15 14:37 21.27992 -158.02802 3080 ft 199 kts 64°
2026-04-15 14:37 21.28439 -158.01445 2459 ft 199 kts 77°
2026-04-15 14:38 21.28501 -158.00810 1990 ft 212 kts 83°
2026-04-15 14:38 21.28718 -157.99536 1593 ft 202 kts 70°
2026-04-15 14:38 21.29087 -157.98176 1359 ft 170 kts 77°
2026-04-15 14:38 21.29405 -157.97028 1140 ft 163 kts 73°
2026-04-15 14:39 21.29734 -157.95875 993 ft 164 kts 70°
2026-04-15 14:39 21.30222 -157.94716 635 ft 176 kts 63°